BAW459 LEMD-EGLL

Flight info

Callsign BAW459
Flight time 1h 40m
Altitude 34000
Route SIE N858 DGO N867 NENEM DCT DIDIG UP87 ROXOG
Aircraft B772/H-SDE2E3FGHIJ5LORVWXY/LB1D1

Departure

Time 2026-05-04 17:44
Airport Adolfo Suárez Madrid–Barajas Airport (LEMD)

Arrival

Time 2026-05-04 19:24
Airport London Heathrow Airport (EGLL)
Time Latitude Longitude Altitude Speed Heading
2026-05-04 17:29 40.49057 -3.56875 1981 ft 0 kts 90°
2026-05-04 17:36 40.49057 -3.56888 1984 ft 4 kts 88°
2026-05-04 17:36 40.49056 -3.56923 1984 ft 4 kts 82°
2026-05-04 17:36 40.49050 -3.56958 1985 ft 4 kts 71°
2026-05-04 17:37 40.49039 -3.56988 1986 ft 4 kts 36°
2026-05-04 17:37 40.49026 -3.56995 1983 ft 1 kts 317°
2026-05-04 17:37 40.49025 -3.56994 1983 ft 0 kts 317°
2026-05-04 17:39 40.49039 -3.57014 1988 ft 5 kts 308°
2026-05-04 17:39 40.49053 -3.57062 1984 ft 6 kts 281°
2026-05-04 17:40 40.49056 -3.57124 1987 ft 7 kts 271°
2026-05-04 17:40 40.49056 -3.57195 1987 ft 9 kts 270°
2026-05-04 17:40 40.49059 -3.57280 1989 ft 10 kts 282°
2026-05-04 17:40 40.49101 -3.57357 1993 ft 11 kts 314°
2026-05-04 17:41 40.49164 -3.57437 1989 ft 14 kts 325°
2026-05-04 17:41 40.49246 -3.57454 1990 ft 6 kts
2026-05-04 17:41 40.49261 -3.57453 1987 ft 0 kts
2026-05-04 17:43 40.49476 -3.57452 1991 ft 67 kts 359°
2026-05-04 17:43 40.50196 -3.57459 1992 ft 137 kts 360°
2026-05-04 17:44 40.51321 -3.57474 2272 ft 172 kts 358°
2026-05-04 17:44 40.52503 -3.57434 3236 ft 167 kts 359°
2026-05-04 17:44 40.53673 -3.57378 3974 ft 174 kts 357°
2026-05-04 17:44 40.54982 -3.57386 4151 ft 200 kts 360°
2026-05-04 17:45 40.56437 -3.56955 4299 ft 228 kts 15°
2026-05-04 17:45 40.58001 -3.56335 4766 ft 240 kts 13°
2026-05-04 17:45 40.59636 -3.55734 5389 ft 246 kts 12°
2026-05-04 17:45 40.61298 -3.55127 6087 ft 250 kts 12°
2026-05-04 17:46 40.62978 -3.54511 6831 ft 251 kts 12°
2026-05-04 17:46 40.64691 -3.54035 7440 ft 253 kts
2026-05-04 17:46 40.66452 -3.53893 8076 ft 255 kts 359°
2026-05-04 17:46 40.68230 -3.53794 8759 ft 257 kts 359°
2026-05-04 17:47 40.70027 -3.53668 9394 ft 260 kts 360°
2026-05-04 17:47 40.71845 -3.53521 10016 ft 263 kts 360°
2026-05-04 17:47 40.73679 -3.53365 10623 ft 266 kts
2026-05-04 17:47 40.75541 -3.53206 11282 ft 268 kts 359°
2026-05-04 17:48 40.77426 -3.53331 11692 ft 280 kts 349°
2026-05-04 17:48 40.79439 -3.53741 11883 ft 306 kts 347°
2026-05-04 17:48 40.81614 -3.54221 12114 ft 335 kts 347°
2026-05-04 17:48 40.84020 -3.54710 12690 ft 353 kts 348°
2026-05-04 17:49 40.86456 -3.55173 13546 ft 362 kts 348°
2026-05-04 17:49 40.88973 -3.55633 14535 ft 367 kts 348°
2026-05-04 17:49 40.91516 -3.56097 15521 ft 371 kts 348°
2026-05-04 17:49 40.94078 -3.56571 16411 ft 377 kts 348°
2026-05-04 17:50 40.96691 -3.57057 17266 ft 382 kts 348°
2026-05-04 17:50 40.99347 -3.57552 18157 ft 387 kts 348°
2026-05-04 17:50 41.02027 -3.58051 19032 ft 392 kts 348°
2026-05-04 17:50 41.04741 -3.58556 19886 ft 397 kts 348°
2026-05-04 17:51 41.07500 -3.59069 20706 ft 402 kts 348°
2026-05-04 17:51 41.10297 -3.59587 21531 ft 407 kts 348°
2026-05-04 17:51 41.13107 -3.60104 22343 ft 409 kts 349°
2026-05-04 17:51 41.15978 -3.60087 22924 ft 424 kts
2026-05-04 17:52 41.18793 -3.58772 23556 ft 430 kts 21°
2026-05-04 17:52 41.21557 -3.57149 24104 ft 439 kts 20°
2026-05-04 17:52 41.24371 -3.55544 24873 ft 441 kts 20°
2026-05-04 17:52 41.27219 -3.53954 25590 ft 445 kts 20°
2026-05-04 17:53 41.30092 -3.52367 26212 ft 451 kts 19°
2026-05-04 17:53 41.33019 -3.50760 26784 ft 457 kts 19°
2026-05-04 17:53 41.35974 -3.49142 27356 ft 462 kts 19°
2026-05-04 17:53 41.38954 -3.47506 27921 ft 466 kts 19°
2026-05-04 17:54 41.40989 -3.46388 28273 ft 469 kts 19°
2026-05-04 17:54 41.45013 -3.44173 28913 ft 476 kts 19°
2026-05-04 17:54 41.48086 -3.42480 29390 ft 480 kts 19°
2026-05-04 17:54 41.51188 -3.40770 29824 ft 484 kts 19°
2026-05-04 17:55 41.54317 -3.39045 30280 ft 488 kts 19°
2026-05-04 17:55 41.57464 -3.37311 30738 ft 491 kts 19°
2026-05-04 17:55 41.59602 -3.36132 31017 ft 493 kts 19°
2026-05-04 17:55 41.62747 -3.34397 31392 ft 497 kts 19°
2026-05-04 17:56 41.65995 -3.32601 31762 ft 501 kts 19°
2026-05-04 17:56 41.69225 -3.30813 32131 ft 504 kts 19°
2026-05-04 17:56 41.72428 -3.29037 32446 ft 507 kts 19°
2026-05-04 17:56 41.75706 -3.27216 32770 ft 511 kts 19°
2026-05-04 17:57 41.79038 -3.25364 33089 ft 513 kts 19°
2026-05-04 17:57 41.82347 -3.23523 33378 ft 516 kts 19°
2026-05-04 17:57 41.85633 -3.21695 33654 ft 519 kts 19°
2026-05-04 17:57 41.88977 -3.19831 33917 ft 522 kts 19°
2026-05-04 17:58 41.92334 -3.17957 34254 ft 522 kts 20°
2026-05-04 17:58 41.95677 -3.16087 34657 ft 521 kts 20°
2026-05-04 17:58 41.99026 -3.14211 35042 ft 521 kts 20°
2026-05-04 17:58 42.02380 -3.12332 35398 ft 521 kts 20°
2026-05-04 17:59 42.05723 -3.10457 35823 ft 520 kts 20°
2026-05-04 17:59 42.09052 -3.08589 36227 ft 519 kts 20°
2026-05-04 17:59 42.15732 -3.04834 36809 ft 521 kts 20°
2026-05-04 18:00 42.19068 -3.02955 37229 ft 518 kts 20°
2026-05-04 18:00 42.22376 -3.01088 37713 ft 514 kts 20°
2026-05-04 18:00 42.25663 -2.99232 38168 ft 511 kts 20°
2026-05-04 18:00 42.28942 -2.97379 38426 ft 512 kts 20°
2026-05-04 18:01 42.32232 -2.95517 38607 ft 514 kts 20°
2026-05-04 18:01 42.35536 -2.93645 38850 ft 515 kts 20°
2026-05-04 18:01 42.38838 -2.91773 39128 ft 515 kts 20°
2026-05-04 18:02 42.45653 -2.88966 39611 ft 509 kts
2026-05-04 18:02 42.49152 -2.88352 39882 ft 506 kts
2026-05-04 18:02 42.52658 -2.88273 40125 ft 502 kts 354°
2026-05-04 18:02 42.56144 -2.88461 40378 ft 501 kts 353°
2026-05-04 18:03 42.59625 -2.88697 40609 ft 501 kts 353°
2026-05-04 18:03 42.63102 -2.88937 40822 ft 501 kts 353°
2026-05-04 18:03 42.66553 -2.89159 40934 ft 504 kts 354°
2026-05-04 18:03 42.70059 -2.89366 40986 ft 506 kts 354°
2026-05-04 18:04 42.77085 -2.89737 41009 ft 504 kts 354°
2026-05-04 18:05 42.87521 -2.90263 41017 ft 498 kts 354°
2026-05-04 18:05 42.94433 -2.90620 41019 ft 496 kts 354°
2026-05-04 18:06 43.04770 -2.91160 41023 ft 495 kts 354°
2026-05-04 18:06 43.11663 -2.91520 41011 ft 496 kts 354°
2026-05-04 18:07 43.18581 -2.91881 41015 ft 497 kts 354°
2026-05-04 18:07 43.25509 -2.92244 41025 ft 498 kts 354°
2026-05-04 18:08 43.32351 -2.93010 41009 ft 495 kts 346°
2026-05-04 18:08 43.39056 -2.95073 41013 ft 493 kts 343°
2026-05-04 18:09 43.52438 -2.99390 41019 ft 494 kts 343°
2026-05-04 18:10 43.59136 -3.01486 41016 ft 494 kts 344°
2026-05-04 18:10 43.65838 -3.03591 41012 ft 494 kts 344°
2026-05-04 18:11 43.72564 -3.05648 41012 ft 494 kts 345°
2026-05-04 18:11 43.79295 -3.07556 41014 ft 494 kts 345°
2026-05-04 18:12 43.86036 -3.09475 41027 ft 494 kts 345°
2026-05-04 18:12 43.92770 -3.11421 41014 ft 494 kts 345°
2026-05-04 18:13 43.99467 -3.13361 41018 ft 494 kts 346°
2026-05-04 18:13 44.06396 -3.13854 41030 ft 500 kts
2026-05-04 18:14 44.09845 -3.13111 41016 ft 503 kts 12°
2026-05-04 18:14 44.16512 -3.10277 41030 ft 505 kts 17°
2026-05-04 18:15 44.29897 -3.04205 41015 ft 506 kts 16°
2026-05-04 18:16 44.36612 -3.01251 41012 ft 506 kts 16°
2026-05-04 18:16 44.43325 -2.98311 41011 ft 506 kts 16°
2026-05-04 18:17 44.53402 -2.93880 41007 ft 505 kts 16°
2026-05-04 18:18 44.63457 -2.89436 41010 ft 505 kts 16°
2026-05-04 18:18 44.70152 -2.86467 40993 ft 505 kts 16°
2026-05-04 18:19 44.80195 -2.82001 40991 ft 504 kts 16°
2026-05-04 18:19 44.86888 -2.79016 40991 ft 504 kts 16°
2026-05-04 18:20 44.93586 -2.76021 40992 ft 505 kts 16°
2026-05-04 18:20 45.00285 -2.73018 40992 ft 505 kts 16°
2026-05-04 18:21 45.06932 -2.70031 40987 ft 505 kts 17°
2026-05-04 18:21 45.13622 -2.67018 40980 ft 505 kts 17°
2026-05-04 18:22 45.20318 -2.63994 40983 ft 505 kts 17°
2026-05-04 18:22 45.27014 -2.60963 40981 ft 505 kts 17°
2026-05-04 18:23 45.33697 -2.57930 40977 ft 505 kts 17°
2026-05-04 18:23 45.40390 -2.54886 40972 ft 505 kts 17°
2026-05-04 18:24 45.47087 -2.51831 40973 ft 505 kts 17°
2026-05-04 18:24 45.53788 -2.48768 40972 ft 505 kts 17°
2026-05-04 18:25 45.60476 -2.45702 40972 ft 505 kts 17°
2026-05-04 18:25 45.67169 -2.42626 40961 ft 505 kts 17°
2026-05-04 18:26 45.73868 -2.39540 40966 ft 505 kts 17°
2026-05-04 18:26 45.80544 -2.36457 40961 ft 504 kts 17°
2026-05-04 18:27 45.87224 -2.33364 40961 ft 504 kts 17°
2026-05-04 18:27 45.93904 -2.30263 40959 ft 505 kts 17°
2026-05-04 18:28 46.00547 -2.27172 40953 ft 505 kts 17°
2026-05-04 18:28 46.07296 -2.24367 40964 ft 504 kts 10°
2026-05-04 18:29 46.14227 -2.22660 40975 ft 504 kts
2026-05-04 18:29 46.21161 -2.21073 40958 ft 505 kts
2026-05-04 18:30 46.31541 -2.18587 40953 ft 504 kts
2026-05-04 18:31 46.38465 -2.16883 40953 ft 504 kts
2026-05-04 18:31 46.45372 -2.15178 40958 ft 503 kts
2026-05-04 18:32 46.52283 -2.13471 40970 ft 503 kts
2026-05-04 18:32 46.59134 -2.11777 40961 ft 503 kts
2026-05-04 18:33 46.66039 -2.10065 40962 ft 503 kts
2026-05-04 18:33 46.72933 -2.08351 40961 ft 502 kts
2026-05-04 18:34 46.79819 -2.06634 40965 ft 502 kts
2026-05-04 18:34 46.86700 -2.04914 40961 ft 501 kts
2026-05-04 18:35 46.93572 -2.03192 40964 ft 501 kts
2026-05-04 18:35 47.00449 -2.01464 40968 ft 501 kts
2026-05-04 18:36 47.07313 -1.99758 40965 ft 500 kts
2026-05-04 18:36 47.14189 -1.98060 40962 ft 501 kts
2026-05-04 18:37 47.21056 -1.96356 40963 ft 501 kts
2026-05-04 18:37 47.27929 -1.94643 40963 ft 501 kts
2026-05-04 18:38 47.34825 -1.93220 40957 ft 500 kts
2026-05-04 18:38 47.41754 -1.93458 40955 ft 498 kts 354°
2026-05-04 18:39 47.48661 -1.94324 40965 ft 498 kts 354°
2026-05-04 18:39 47.54397 -1.94970 40966 ft 498 kts 355°
2026-05-04 18:40 47.61331 -1.95458 40958 ft 499 kts
2026-05-04 18:40 47.68191 -1.94019 40970 ft 499 kts 14°
2026-05-04 18:41 47.74802 -1.90809 40964 ft 500 kts 19°
2026-05-04 18:41 47.81306 -1.87354 40962 ft 500 kts 19°
2026-05-04 18:42 47.87884 -1.83947 40962 ft 500 kts 19°
2026-05-04 18:42 47.94460 -1.80589 40961 ft 500 kts 19°
2026-05-04 18:43 48.01048 -1.77214 40963 ft 500 kts 19°
2026-05-04 18:43 48.07793 -1.74742 40959 ft 499 kts
2026-05-04 18:44 48.14706 -1.74101 40968 ft 498 kts 359°
2026-05-04 18:44 48.21628 -1.74260 40963 ft 498 kts 358°
2026-05-04 18:45 48.28567 -1.74434 40965 ft 498 kts 358°
2026-05-04 18:45 48.35502 -1.74542 40964 ft 498 kts 359°
2026-05-04 18:46 48.42428 -1.74621 40970 ft 498 kts 359°
2026-05-04 18:46 48.49351 -1.74699 40973 ft 497 kts 359°
2026-05-04 18:47 48.56271 -1.74780 40970 ft 497 kts 359°
2026-05-04 18:47 48.63181 -1.74863 40973 ft 497 kts 359°
2026-05-04 18:48 48.70109 -1.74947 40969 ft 496 kts 359°
2026-05-04 18:48 48.77058 -1.75031 40973 ft 496 kts 359°
2026-05-04 18:49 48.83912 -1.75114 40971 ft 495 kts 359°
2026-05-04 18:49 48.90762 -1.75197 40976 ft 495 kts 359°
2026-05-04 18:50 48.97648 -1.75065 40981 ft 495 kts
2026-05-04 18:50 49.04530 -1.74741 40982 ft 495 kts
2026-05-04 18:51 49.11400 -1.74437 40989 ft 494 kts
2026-05-04 18:51 49.18268 -1.74171 40991 ft 493 kts
2026-05-04 18:52 49.25134 -1.73915 40990 ft 493 kts
2026-05-04 18:52 49.31970 -1.73658 40816 ft 489 kts
2026-05-04 18:52 49.35369 -1.73530 40490 ft 489 kts
2026-05-04 18:53 49.38782 -1.73400 40132 ft 490 kts
2026-05-04 18:53 49.42187 -1.73270 39790 ft 491 kts
2026-05-04 18:53 49.45595 -1.73140 39465 ft 490 kts
2026-05-04 18:53 49.49003 -1.73010 39156 ft 490 kts
2026-05-04 18:54 49.52414 -1.72880 38840 ft 489 kts
2026-05-04 18:54 49.55810 -1.72750 38523 ft 488 kts
2026-05-04 18:54 49.59200 -1.72620 38162 ft 488 kts
2026-05-04 18:54 49.62601 -1.72436 37811 ft 488 kts
2026-05-04 18:55 49.65995 -1.72160 37455 ft 488 kts
2026-05-04 18:55 49.72753 -1.71533 36769 ft 486 kts
2026-05-04 18:55 49.76129 -1.71228 36421 ft 485 kts
2026-05-04 18:56 49.79498 -1.70934 36007 ft 485 kts
2026-05-04 18:56 49.82864 -1.70648 35469 ft 486 kts
2026-05-04 18:56 49.86221 -1.70366 34970 ft 481 kts
2026-05-04 18:56 49.89555 -1.70086 34447 ft 478 kts
2026-05-04 18:57 49.92864 -1.69807 33930 ft 474 kts
2026-05-04 18:57 49.96148 -1.69528 33421 ft 471 kts
2026-05-04 18:57 49.99386 -1.69028 32845 ft 468 kts
2026-05-04 18:57 50.02632 -1.68031 31857 ft 483 kts 15°
2026-05-04 18:58 50.05894 -1.66457 31189 ft 495 kts 19°
2026-05-04 18:58 50.09185 -1.64777 30785 ft 499 kts 19°
2026-05-04 18:58 50.12498 -1.63117 30458 ft 501 kts 19°
2026-05-04 18:58 50.15816 -1.61481 30217 ft 500 kts 19°
2026-05-04 18:59 50.19134 -1.59859 30044 ft 498 kts 19°
2026-05-04 18:59 50.22439 -1.58245 29878 ft 497 kts 19°
2026-05-04 18:59 50.25732 -1.56632 29724 ft 495 kts 19°
2026-05-04 18:59 50.29011 -1.55023 29546 ft 494 kts 19°
2026-05-04 19:00 50.32288 -1.53423 29402 ft 493 kts 19°
2026-05-04 19:00 50.35551 -1.51833 29270 ft 491 kts 18°
2026-05-04 19:00 50.38817 -1.50238 28654 ft 492 kts 18°
2026-05-04 19:00 50.42074 -1.48647 27929 ft 488 kts 18°
2026-05-04 19:01 50.45291 -1.47072 27189 ft 482 kts 18°
2026-05-04 19:01 50.48468 -1.45514 26468 ft 476 kts 18°
2026-05-04 19:01 50.51610 -1.43969 25744 ft 471 kts 18°
2026-05-04 19:01 50.54698 -1.42343 25019 ft 463 kts 23°
2026-05-04 19:02 50.57580 -1.40179 24304 ft 457 kts 30°
2026-05-04 19:02 50.60320 -1.37707 23624 ft 451 kts 32°
2026-05-04 19:02 50.62999 -1.35199 22934 ft 447 kts 32°
2026-05-04 19:02 50.65672 -1.32751 22242 ft 442 kts 31°
2026-05-04 19:03 50.68347 -1.30380 21553 ft 438 kts 30°
2026-05-04 19:03 50.71001 -1.28081 20872 ft 433 kts 30°
2026-05-04 19:03 50.73635 -1.25815 20196 ft 429 kts 30°
2026-05-04 19:03 50.76237 -1.23569 19537 ft 424 kts 30°
2026-05-04 19:04 50.78747 -1.21197 18857 ft 418 kts 33°
2026-05-04 19:04 50.81170 -1.18690 18209 ft 413 kts 35°
2026-05-04 19:04 50.83538 -1.16175 17552 ft 408 kts 35°
2026-05-04 19:04 50.85880 -1.13693 16956 ft 404 kts 34°
2026-05-04 19:05 50.88204 -1.11255 16507 ft 396 kts 34°
2026-05-04 19:05 50.90487 -1.08874 16034 ft 389 kts 34°
2026-05-04 19:05 50.92707 -1.06570 15442 ft 372 kts 34°
2026-05-04 19:05 50.94818 -1.04391 14845 ft 353 kts 33°
2026-05-04 19:06 50.96827 -1.02310 14286 ft 337 kts 34°
2026-05-04 19:06 50.98763 -1.00300 13631 ft 328 kts 33°
2026-05-04 19:06 51.00633 -0.98286 12999 ft 323 kts 38°
2026-05-04 19:06 51.02256 -0.95838 12375 ft 319 kts 47°
2026-05-04 19:07 51.03704 -0.93205 11768 ft 316 kts 49°
2026-05-04 19:07 51.05118 -0.90557 11148 ft 311 kts 50°
2026-05-04 19:07 51.06504 -0.87974 10517 ft 304 kts 49°
2026-05-04 19:07 51.07873 -0.85468 9877 ft 295 kts 49°
2026-05-04 19:08 51.09202 -0.83051 9236 ft 289 kts 48°
2026-05-04 19:08 51.10511 -0.80689 8627 ft 284 kts 48°
2026-05-04 19:08 51.11819 -0.78334 8248 ft 285 kts 48°
2026-05-04 19:08 51.13140 -0.75988 8074 ft 285 kts 47°
2026-05-04 19:09 51.14451 -0.73653 8029 ft 284 kts 48°
2026-05-04 19:09 51.15753 -0.71318 8022 ft 281 kts 48°
2026-05-04 19:09 51.17054 -0.68980 8019 ft 281 kts 48°
2026-05-04 19:09 51.18346 -0.66659 8021 ft 280 kts 48°
2026-05-04 19:10 51.19647 -0.64328 8016 ft 282 kts 48°
2026-05-04 19:10 51.20948 -0.61989 8022 ft 282 kts 48°
2026-05-04 19:10 51.22246 -0.59645 8010 ft 282 kts 48°
2026-05-04 19:10 51.23543 -0.57301 7820 ft 283 kts 48°
2026-05-04 19:11 51.24833 -0.54974 7495 ft 279 kts 48°
2026-05-04 19:11 51.26119 -0.52656 7182 ft 280 kts 48°
2026-05-04 19:11 51.27406 -0.50331 7082 ft 277 kts 48°
2026-05-04 19:11 51.28667 -0.48049 7029 ft 273 kts 48°
2026-05-04 19:12 51.29927 -0.45793 7023 ft 271 kts 44°
2026-05-04 19:12 51.33399 -0.43817 7024 ft 275 kts 351°
2026-05-04 19:12 51.35168 -0.44926 7022 ft 275 kts 324°
2026-05-04 19:13 51.36419 -0.47205 7022 ft 275 kts 297°
2026-05-04 19:13 51.36955 -0.50120 7024 ft 273 kts 279°
2026-05-04 19:13 51.37193 -0.53136 7017 ft 270 kts 276°
2026-05-04 19:13 51.37375 -0.56058 6997 ft 257 kts 276°
2026-05-04 19:14 51.37540 -0.58832 6999 ft 245 kts 276°
2026-05-04 19:14 51.37696 -0.61542 7017 ft 243 kts 276°
2026-05-04 19:14 51.37847 -0.64205 6961 ft 244 kts 276°
2026-05-04 19:14 51.37999 -0.66915 6619 ft 245 kts 276°
2026-05-04 19:15 51.38146 -0.69621 6119 ft 243 kts 276°
2026-05-04 19:15 51.38289 -0.72294 5617 ft 239 kts 276°
2026-05-04 19:15 51.38428 -0.74927 5072 ft 238 kts 276°
2026-05-04 19:15 51.38561 -0.77576 4501 ft 239 kts 276°
2026-05-04 19:16 51.38686 -0.80207 4172 ft 238 kts 276°
2026-05-04 19:16 51.38812 -0.82874 4025 ft 241 kts 276°
2026-05-04 19:16 51.38932 -0.85532 3998 ft 236 kts 275°
2026-05-04 19:16 51.39052 -0.88088 3977 ft 221 kts 280°
2026-05-04 19:17 51.39532 -0.90058 3971 ft 200 kts 313°
2026-05-04 19:17 51.40677 -0.91209 3983 ft 187 kts 351°
2026-05-04 19:17 51.41956 -0.91380 4007 ft 186 kts 359°
2026-05-04 19:17 51.43254 -0.91409 4005 ft 187 kts
2026-05-04 19:18 51.44558 -0.91416 3999 ft 186 kts
2026-05-04 19:18 51.45741 -0.90748 3982 ft 181 kts 42°
2026-05-04 19:18 51.46458 -0.89090 4025 ft 184 kts 61°
2026-05-04 19:18 51.47068 -0.87244 4070 ft 189 kts 62°
2026-05-04 19:19 51.47445 -0.85240 4005 ft 188 kts 82°
2026-05-04 19:19 51.47547 -0.83152 3997 ft 188 kts 84°
2026-05-04 19:19 51.47608 -0.81054 3986 ft 189 kts 86°
2026-05-04 19:19 51.47634 -0.78921 3736 ft 192 kts 87°
2026-05-04 19:20 51.47643 -0.77509 3564 ft 190 kts 87°
2026-05-04 19:20 51.47652 -0.75373 3321 ft 188 kts 88°
2026-05-04 19:20 51.47660 -0.73322 3103 ft 183 kts 87°
2026-05-04 19:20 51.47668 -0.71308 2850 ft 180 kts 87°
2026-05-04 19:21 51.47674 -0.69272 2605 ft 179 kts 87°
2026-05-04 19:21 51.47681 -0.67301 2372 ft 180 kts 88°
2026-05-04 19:21 51.47688 -0.65284 2134 ft 182 kts 88°
2026-05-04 19:21 51.47696 -0.63312 1900 ft 168 kts 88°
2026-05-04 19:22 51.47701 -0.61525 1677 ft 152 kts 88°
2026-05-04 19:22 51.47706 -0.59910 1466 ft 139 kts 88°
2026-05-04 19:22 51.47712 -0.58375 1359 ft 137 kts 88°
2026-05-04 19:22 51.47718 -0.56810 1158 ft 139 kts 88°
2026-05-04 19:23 51.47728 -0.55282 999 ft 137 kts 88°
2026-05-04 19:23 51.47740 -0.53764 778 ft 138 kts 88°
2026-05-04 19:23 51.47740 -0.52241 582 ft 136 kts 88°
2026-05-04 19:23 51.47744 -0.50725 376 ft 135 kts 89°
2026-05-04 19:24 51.47751 -0.49198 213 ft 137 kts 88°
2026-05-04 19:24 51.47756 -0.47669 97 ft 133 kts 88°
2026-05-04 19:24 51.47760 -0.46398 95 ft 90 kts 89°
2026-05-04 19:24 51.47766 -0.45772 92 ft 30 kts 89°
2026-05-04 19:25 51.47734 -0.45496 93 ft 21 kts 142°
2026-05-04 19:25 51.47666 -0.45468 93 ft 6 kts 176°
2026-05-04 19:25 51.47639 -0.45465 94 ft 0 kts 177°
2026-05-04 19:25 51.47638 -0.45465 90 ft 2 kts 177°
2026-05-04 19:26 51.47619 -0.45469 92 ft 4 kts 197°
2026-05-04 19:26 51.47599 -0.45540 92 ft 11 kts 266°
2026-05-04 19:26 51.47595 -0.45703 90 ft 18 kts 269°
2026-05-04 19:26 51.47595 -0.45906 94 ft 17 kts 270°
2026-05-04 19:27 51.47594 -0.46077 93 ft 10 kts 269°
2026-05-04 19:27 51.47594 -0.46197 93 ft 12 kts 269°
2026-05-04 19:27 51.47593 -0.46346 92 ft 15 kts 270°
2026-05-04 19:27 51.47592 -0.46519 91 ft 14 kts 269°
2026-05-04 19:28 51.47591 -0.46696 94 ft 16 kts 270°
2026-05-04 19:28 51.47583 -0.46891 94 ft 19 kts 265°
2026-05-04 19:28 51.47581 -0.47107 91 ft 20 kts 270°
2026-05-04 19:28 51.47581 -0.47338 93 ft 19 kts 269°
2026-05-04 19:29 51.47580 -0.47557 92 ft 19 kts 270°
2026-05-04 19:29 51.47580 -0.47769 90 ft 19 kts 269°
2026-05-04 19:29 51.47579 -0.47965 95 ft 17 kts 270°
2026-05-04 19:29 51.47578 -0.48144 93 ft 15 kts 270°
2026-05-04 19:30 51.47577 -0.48300 93 ft 12 kts 262°
2026-05-04 19:30 51.47505 -0.48357 95 ft 13 kts 179°
2026-05-04 19:30 51.47411 -0.48357 95 ft 14 kts 180°
2026-05-04 19:30 51.47316 -0.48358 92 ft 13 kts 180°
2026-05-04 19:31 51.47230 -0.48357 95 ft 13 kts 180°
2026-05-04 19:31 51.47139 -0.48356 92 ft 12 kts 180°
2026-05-04 19:31 51.47071 -0.48356 94 ft 7 kts 176°
2026-05-04 19:31 51.47050 -0.48302 94 ft 4 kts 96°
2026-05-04 19:32 51.47049 -0.48260 92 ft 3 kts 91°
2026-05-04 19:32 51.47049 -0.48237 94 ft 1 kts 90°
2026-05-04 19:32 51.47049 -0.48231 94 ft 0 kts 90°